Regional Weather Roundup
Issued by NWS

Home | Current Version | Previous Version | Text Only | Print | Product List | Glossary On
Versions: 1 2 3 4 5 6 7 8 9 10 11 12 13 14 15 16 17 18 19 20 21 22 23 24 25 26 27 28 29 30 31 32 33 34 35 36 37 38 39 40 41 42 43 44 45 46 47 48 49 50
000
ASUS42 KKEY 310410
RWRKEY

FLORIDA REGIONAL WEATHER ROUNDUP FOR THE FLORIDA KEYS
NATIONAL WEATHER SERVICE KEY WEST FLORIDA
1200 AM EDT SUN AUG 31 2014

...SOUTH FLORIDA AND THE KEYS...

CITY           SKY/WX    TMP DP  RH WIND       PRES   REMARKS
FORT MYERS     PTCLDY    80  75  84 E3        30.11R
SW REGIONAL AP PTCLDY    79  74  84 E5        30.12R
NAPLES         CLEAR     82  74  76 E5        30.10R
MIAMI          PTCLDY    85  75  72 E12       30.10S HX  93
WEST KENDALL   CLEAR     85  74  69 SE7       30.10R HX  92
HOMESTEAD      PTCLDY    85  76  74 SE6       30.09S HX  94
MARATHON       PTCLDY    85  75  72 E8G21     30.07R HX  93
BOCA CHICA NAS PTCLDY    85  74  69 SE15G24   30.07R HX  92
KEY WEST INTL  PTCLDY    86  73  65 SE20      30.08R HX  93

...INTERNATIONAL WEATHER...

CITY           SKY/WX    TMP DP  RH WIND       PRES   REMARKS
NASSAU BAHAMAS PTCLDY    84  75  74 E7        30.11F HX  92
CANCUN MEXICO  MOCLDY    79  75  89 E3        29.97R
COZUMEL MEXICO CLOUDY    72  72 100 CALM      29.96R

ADJACENT COASTAL WATERS...

STATION/POSITION TIME  SKY/WX   TEMP    WIND        PRES    WAVE
                                AIR SEA DIR/SP/G            HT/PER
                 (UTC)          (F)     (DEG/KT/KT) (MB)    (FT/S)
PULASKI SHOAL LI 0400            86     120/ 23/ 25 1017.9R
SAND KEY         0400            85     130/ 15/ 18 1018.0R
SOMBRERO KEY     0400            86     120/ 19/ 21 1018.9R
LONG KEY         0300            86 87  120/ 14/ 16 1019.0R
MOLASSES REEF    0300            86 87  110/ 15/ 17 1018.5R
FOWEY ROCKS      0300            87 87  110/ 17/ 18 1019.3R
Buoy 42080       NOT AVBL

$$



USA.gov is the U.S. government's official web portal to all federal, state and local government web resources and services.